FW5469 Weather Reports


Display with metric or nautical units.
time (UTC)temp
F
wind
direction
speed
MPH
gust
MPH
rain 1hr
in
rain 24hr
in
rain mn
in
humidity
%
barometer
mb
20260503223057 60 352 3.0 11.0 0.00 0.00 0.00 44 1011.0
20260503221602 61 242 3.0 12.0 0.00 0.00 0.00 44 1011.0
20260503220058 62 219 4.0 14.0 0.00 0.00 0.00 42 1010.9
20260503214600 61 203 4.0 13.0 0.00 0.00 0.00 45 1011.0
20260503213057 60 121 2.0 14.0 0.00 0.00 0.00 45 1011.1
20260503211558 61 228 2.0 8.0 0.00 0.00 0.00 44 1011.1
20260503210055 62 223 4.0 16.0 0.00 0.00 0.00 42 1011.1
20260503204557 61 198 4.0 14.0 0.00 0.00 0.00 42 1011.0
20260503203113 63 297 4.0 12.0 0.00 0.00 0.00 40 1011.2
20260503201556 63 198 2.0 10.0 0.00 0.00 0.00 42 1011.1
20260503200105 62 184 3.0 11.0 0.00 0.00 0.00 42 1011.4
20260503194557 62 207 2.0 11.0 0.00 0.00 0.00 43 1011.8
20260503193057 62 4 2.0 11.0 0.00 0.00 0.00 43 1012.1
20260503191558 61 221 6.0 16.0 0.00 0.00 0.00 41 1012.3
20260503190106 62 247 3.0 21.0 0.00 0.00 0.00 45 1012.5
20260503184602 61 235 5.0 15.0 0.00 0.00 0.00 43 1012.7
20260503183057 61 235 5.0 14.0 0.00 0.00 0.00 45 1013.1
20260503181600 60 235 3.0 15.0 0.00 0.00 0.00 45 1012.9
20260503180058 61 150 2.0 16.0 0.00 0.00 0.00 46 1013.1
20260503174554 61 224 4.0 17.0 0.00 0.00 0.00 44 1013.4
20260503173100 60 326 5.0 13.0 0.00 0.00 0.00 46 1013.5
20260503171604 60 222 2.0 16.0 0.00 0.00 0.00 50 1013.7
20260503100110 36 166 0.0 2.0 0.00 0.04 0.00 80 1014.7
20260503081600 35 0 0.0 0.0 0.00 0.11 0.00 85 1014.8
20260503071604 34 0 0.0 0.0 0.00 0.11 0.00 87 1014.8
20260503070109 34 0 0.0 0.0 0.00 0.11 0.00 88 1014.9
20260503060118 34 0 0.0 0.0 0.00 0.12 0.00 87 1015.2
20260503054608 35 0 0.0 0.0 0.00 0.12 0.00 86 1015.2
20260503053057 35 0 0.0 0.0 0.00 0.12 0.00 85 1015.2
20260503051554 36 0 0.0 0.0 0.00 0.12 0.00 84 1015.1
20260503050055 37 0 0.0 0.0 0.00 0.12 0.00 82 1015.3
20260503044558 38 0 0.0 0.0 0.00 0.20 0.00 80 1015.4
20260503043057 39 0 0.0 1.0 0.00 0.20 0.00 78 1015.3
20260503041557 40 237 0.0 2.0 0.00 0.20 0.00 77 1015.4
20260503040058 41 236 0.0 2.0 0.00 0.20 0.00 76 1015.5
20260503034607 41 235 0.0 3.0 0.00 0.26 0.20 76 1015.6
20260503033106 41 233 0.0 3.0 0.00 0.26 0.20 75 1015.4
20260503031557 41 0 0.0 1.0 0.00 0.26 0.20 75 1015.6
20260503030054 40 242 0.0 1.0 0.00 0.26 0.20 77 1015.6
20260503024558 40 0 0.0 0.0 0.00 0.26 0.20 79 1015.7
20260503023102 40 0 0.0 0.0 0.00 0.26 0.20 78 1015.9
20260503021556 40 0 0.0 0.0 0.00 0.26 0.20 78 1015.9
20260503020057 40 0 0.0 0.0 0.00 0.26 0.20 78 1015.8
20260503014559 40 0 0.0 0.0 0.00 0.26 0.20 76 1015.7
20260503013056 40 0 0.0 0.0 0.00 0.26 0.20 75 1015.7
20260503011555 41 0 0.0 0.0 0.00 0.26 0.20 76 1015.8
20260503010057 41 0 0.0 0.0 0.00 0.26 0.20 73 1015.7
20260503004553 41 0 0.0 0.0 0.00 0.26 0.20 70 1015.6
20260503003107 42 0 0.0 0.0 0.00 0.26 0.20 66 1015.5
20260503001554 43 0 0.0 0.0 0.00 0.26 0.20 63 1015.6
20260503000055 43 0 0.0 1.0 0.00 0.26 0.20 62 1015.6
20260502234559 43 317 0.0 1.0 0.00 0.26 0.20 62 1015.4
20260502233054 44 311 0.0 3.0 0.00 0.26 0.20 61 1015.4
20260502231608 44 312 0.0 5.0 0.00 0.26 0.20 61 1015.4
20260502230058 44 72 0.0 3.0 0.00 0.26 0.20 59 1015.5
20260502224559 44 303 1.0 4.0 0.00 0.26 0.20 58 1015.5